Location: Newark
(49.8846°N, 10.8879°E)
Time: 05:41:26
(UTC+00:00)

Starlink Launch 2 leader - Visible Passes

Search period start: 06 December 2019 00:00
Search period end: 16 December 2019 00:00
Orbit: 279 x 281 km, 53.0° (Epoch: 13 November)

Date Brightness Start Highest point End Pass type
(mag) Time Alt. Az. Time Alt. Az. Time Alt. Az.
06 Dec 2.1 05:14:06 72° WSW 05:14:14 76° SSW 05:16:41 10° ESE visible
07 Dec 2.8 05:16:05 44° SW 05:16:08 44° SSW 05:18:30 10° SE visible
08 Dec 3.7 05:18:06 26° SSW 05:18:06 26° SSW 05:20:07 10° SSE visible
09 Dec 4.6 05:20:11 15° SSW 05:20:11 15° SSW 05:21:23 10° S visible
